| time (UTC) | temp F | wind direction | speed knots | gust knots | rain 1hr in | rain 24hr in | rain mn in | humidity % | barometer mb |
| 20260507180034 | 54 | 194 | 0.0 | 0.0 | 0.00 | 0.08 | 0.08 | 87 | 1011.1 |
| 20260507174522 | 54 | 194 | 0.0 | 0.0 | 0.00 | 0.08 | 0.08 | 87 | 1011.2 |
| 20260507173019 | 54 | 194 | 0.0 | 0.0 | 0.00 | 0.08 | 0.08 | 87 | 1011.5 |
| 20260507171517 | 54 | 194 | 0.0 | 0.0 | 0.00 | 0.08 | 0.08 | 87 | 1011.5 |
| 20260507170018 | 55 | 49 | 0.0 | 0.0 | 0.00 | 0.08 | 0.08 | 85 | 1011.6 |
| 20260507164515 | 55 | 49 | 0.0 | 0.0 | 0.00 | 0.08 | 0.08 | 84 | 1011.9 |
| 20260507163014 | 55 | 49 | 0.0 | 0.0 | 0.00 | 0.08 | 0.08 | 84 | 1012.0 |
| 20260507161520 | 55 | 48 | 0.0 | 0.0 | 0.00 | 0.08 | 0.08 | 84 | 1012.0 |
| 20260507160013 | 55 | 48 | 0.0 | 0.0 | 0.00 | 0.08 | 0.08 | 84 | 1011.9 |
| 20260507154512 | 55 | 71 | 0.0 | 0.0 | 0.00 | 0.08 | 0.08 | 84 | 1012.0 |
| 20260507153012 | 56 | 360 | 0.9 | 1.7 | 0.00 | 0.08 | 0.08 | 84 | 1012.0 |
| 20260507151517 | 56 | 344 | 0.0 | 1.7 | 0.00 | 0.08 | 0.08 | 85 | 1011.8 |
| 20260507150013 | 56 | 349 | 0.0 | 1.7 | 0.00 | 0.08 | 0.08 | 86 | 1011.8 |
| 20260507144508 | 56 | 348 | 0.9 | 5.2 | 0.00 | 0.12 | 0.08 | 88 | 1011.8 |
| 20260507143008 | 56 | 26 | 0.0 | 1.7 | 0.00 | 0.12 | 0.08 | 89 | 1011.5 |
| 20260507141507 | 56 | 26 | 0.0 | 2.6 | 0.00 | 0.12 | 0.08 | 88 | 1011.8 |
| 20260507140014 | 57 | 355 | 0.0 | 3.5 | 0.00 | 0.12 | 0.08 | 90 | 1012.0 |
| 20260507134521 | 57 | 355 | 0.0 | 1.7 | 0.00 | 0.13 | 0.08 | 90 | 1012.0 |
| 20260507133009 | 57 | 351 | 0.0 | 4.3 | 0.00 | 0.13 | 0.08 | 91 | 1011.9 |
| 20260507131513 | 57 | 89 | 0.0 | 2.6 | 0.00 | 0.13 | 0.08 | 91 | 1011.4 |
| 20260507130004 | 56 | 26 | 0.0 | 1.7 | 0.00 | 0.13 | 0.08 | 93 | 1011.4 |
| 20260507124503 | 56 | 18 | 0.0 | 0.9 | 0.00 | 0.13 | 0.08 | 94 | 1011.8 |
| 20260507123008 | 55 | 18 | 0.0 | 0.9 | 0.00 | 0.13 | 0.08 | 94 | 1011.7 |
| 20260507121501 | 55 | 18 | 0.0 | 0.9 | 0.00 | 0.13 | 0.08 | 95 | 1011.2 |
| 20260507114602 | 55 | 29 | 0.0 | 0.0 | 0.00 | 0.13 | 0.08 | 96 | 1011.5 |
| 20260507113059 | 55 | 19 | 0.0 | 1.7 | 0.00 | 0.13 | 0.08 | 96 | 1011.5 |
| 20260507111555 | 55 | 19 | 0.0 | 0.9 | 0.00 | 0.13 | 0.08 | 96 | 1011.3 |
| 20260507110107 | 55 | 19 | 0.0 | 0.9 | 0.00 | 0.13 | 0.08 | 96 | 1011.3 |
| 20260507104553 | 55 | 19 | 0.0 | 0.9 | 0.00 | 0.13 | 0.08 | 96 | 1010.9 |
| 20260507103055 | 56 | 19 | 0.0 | 0.9 | 0.02 | 0.13 | 0.08 | 96 | 1011.0 |
| 20260507101550 | 56 | 17 | 0.0 | 2.6 | 0.03 | 0.13 | 0.08 | 95 | 1010.6 |
| 20260507100045 | 57 | 269 | 0.0 | 6.1 | 0.04 | 0.13 | 0.08 | 95 | 1010.5 |
| 20260507094542 | 59 | 360 | 0.0 | 2.6 | 0.06 | 0.13 | 0.08 | 94 | 1010.6 |
| 20260507093038 | 62 | 70 | 0.9 | 2.6 | 0.04 | 0.11 | 0.06 | 94 | 1010.1 |
| 20260507091538 | 65 | 355 | 1.7 | 5.2 | 0.04 | 0.10 | 0.05 | 97 | 1009.9 |
| 20260507090039 | 65 | 5 | 0.0 | 2.6 | 0.03 | 0.09 | 0.04 | 97 | 1009.8 |
| 20260507084538 | 65 | 5 | 0.0 | 0.0 | 0.01 | 0.07 | 0.02 | 96 | 1009.9 |
| 20260507083037 | 66 | 5 | 0.0 | 1.7 | 0.01 | 0.07 | 0.02 | 96 | 1009.7 |
| 20260507081530 | 66 | 5 | 0.0 | 2.6 | 0.00 | 0.06 | 0.01 | 96 | 1009.4 |
| 20260507080030 | 66 | 72 | 0.0 | 0.0 | 0.00 | 0.06 | 0.01 | 95 | 1009.3 |
| 20260507074539 | 66 | 73 | 0.0 | 0.9 | 0.01 | 0.06 | 0.01 | 95 | 1008.6 |
| 20260507073025 | 66 | 180 | 0.0 | 4.3 | 0.01 | 0.06 | 0.01 | 95 | 1008.8 |
| 20260507071524 | 67 | 225 | 0.0 | 3.5 | 0.01 | 0.06 | 0.01 | 94 | 1008.8 |
| 20260507070022 | 67 | 251 | 0.0 | 4.3 | 0.01 | 0.06 | 0.01 | 93 | 1009.5 |
| 20260507064521 | 67 | 173 | 1.7 | 5.2 | 0.00 | 0.05 | 0.00 | 91 | 1009.3 |
| 20260507063019 | 68 | 175 | 2.6 | 5.2 | 0.00 | 0.05 | 0.00 | 90 | 1009.2 |
| 20260507061518 | 68 | 182 | 0.9 | 3.5 | 0.00 | 0.05 | 0.00 | 89 | 1008.9 |
| 20260507060015 | 68 | 159 | 1.7 | 5.2 | 0.00 | 0.05 | 0.00 | 88 | 1008.9 |
| 20260507054515 | 68 | 175 | 0.9 | 3.5 | 0.00 | 0.05 | 0.00 | 88 | 1009.1 |
| 20260507053012 | 68 | 155 | 0.0 | 3.5 | 0.00 | 0.05 | 0.00 | 88 | 1009.3 |
| 20260507051510 | 68 | 184 | 0.0 | 2.6 | 0.00 | 0.05 | 0.00 | 88 | 1009.4 |
| 20260507050006 | 68 | 252 | 0.9 | 4.3 | 0.00 | 0.05 | 0.00 | 88 | 1009.8 |
| 20260507044504 | 69 | 194 | 0.9 | 4.3 | 0.00 | 0.05 | 0.00 | 87 | 1010.5 |
| 20260507043003 | 69 | 202 | 0.0 | 2.6 | 0.00 | 0.05 | 0.00 | 87 | 1010.7 |
| 20260507041602 | 69 | 189 | 0.9 | 2.6 | 0.00 | 0.05 | 0.00 | 87 | 1010.6 |
| 20260507040104 | 68 | 182 | 0.9 | 2.6 | 0.00 | 0.05 | 0.00 | 87 | 1010.5 |
| 20260507034601 | 68 | 177 | 0.9 | 4.3 | 0.00 | 0.05 | 0.05 | 88 | 1010.3 |
| 20260507033058 | 67 | 200 | 0.9 | 3.5 | 0.00 | 0.05 | 0.05 | 89 | 1010.3 |
| 20260507031557 | 67 | 290 | 0.0 | 2.6 | 0.00 | 0.05 | 0.05 | 91 | 1009.7 |
| 20260507030058 | 66 | 240 | 0.0 | 3.5 | 0.00 | 0.05 | 0.05 | 91 | 1009.9 |
| 20260507024601 | 66 | 211 | 0.9 | 4.3 | 0.00 | 0.05 | 0.05 | 91 | 1009.8 |
| 20260507023057 | 66 | 181 | 0.0 | 2.6 | 0.00 | 0.05 | 0.05 | 91 | 1009.9 |
| 20260507021557 | 66 | 197 | 0.0 | 0.9 | 0.00 | 0.05 | 0.05 | 91 | 1010.0 |
| 20260507020054 | 66 | 197 | 0.0 | 2.6 | 0.00 | 0.05 | 0.05 | 91 | 1010.4 |
| 20260507014550 | 66 | 197 | 0.0 | 1.7 | 0.00 | 0.05 | 0.05 | 92 | 1010.5 |
| 20260507013047 | 66 | 197 | 0.0 | 0.9 | 0.00 | 0.05 | 0.05 | 91 | 1010.4 |
| 20260507011548 | 66 | 197 | 0.0 | 0.0 | 0.00 | 0.05 | 0.05 | 91 | 1009.9 |
| 20260507010104 | 67 | 197 | 0.0 | 0.0 | 0.00 | 0.05 | 0.05 | 89 | 1010.0 |
| 20260507004546 | 67 | 197 | 0.0 | 0.0 | 0.00 | 0.05 | 0.05 | 87 | 1009.9 |
| 20260507003045 | 68 | 198 | 0.0 | 2.6 | 0.00 | 0.05 | 0.05 | 86 | 1010.1 |
| 20260507001551 | 69 | 195 | 0.0 | 3.5 | 0.00 | 0.05 | 0.05 | 85 | 1009.9 |
| 20260507000044 | 69 | 190 | 0.0 | 2.6 | 0.00 | 0.05 | 0.05 | 84 | 1010.2 |
| 20260506234543 | 70 | 173 | 0.0 | 2.6 | 0.00 | 0.05 | 0.05 | 84 | 1010.0 |
| 20260506233052 | 70 | 192 | 0.0 | 2.6 | 0.00 | 0.05 | 0.05 | 83 | 1009.7 |
| 20260506231542 | 70 | 175 | 0.9 | 4.3 | 0.00 | 0.05 | 0.05 | 82 | 1009.7 |
| 20260506230044 | 71 | 157 | 0.9 | 6.1 | 0.00 | 0.05 | 0.05 | 82 | 1009.8 |
| 20260506224541 | 71 | 199 | 0.9 | 4.3 | 0.00 | 0.05 | 0.05 | 81 | 1009.8 |
| 20260506223043 | 71 | 186 | 0.0 | 2.6 | 0.00 | 0.05 | 0.05 | 81 | 1009.7 |
| 20260506221545 | 71 | 180 | 1.7 | 6.1 | 0.00 | 0.05 | 0.05 | 80 | 1009.7 |
| 20260506220046 | 71 | 211 | 0.0 | 3.5 | 0.00 | 0.05 | 0.05 | 79 | 1009.7 |
| 20260506214537 | 71 | 180 | 0.9 | 6.1 | 0.00 | 0.05 | 0.05 | 78 | 1009.6 |
| 20260506213036 | 72 | 186 | 1.7 | 6.1 | 0.00 | 0.05 | 0.05 | 77 | 1009.8 |
| 20260506211540 | 71 | 165 | 0.9 | 6.1 | 0.00 | 0.05 | 0.05 | 78 | 1010.2 |
| 20260506210031 | 71 | 207 | 2.6 | 9.6 | 0.00 | 0.05 | 0.05 | 78 | 1009.8 |
| 20260506204528 | 70 | 279 | 0.9 | 6.1 | 0.00 | 0.05 | 0.05 | 79 | 1009.7 |
| 20260506201540 | 70 | 200 | 1.7 | 7.8 | 0.00 | 0.05 | 0.05 | 80 | 1009.9 |
| 20260506200042 | 70 | 146 | 1.7 | 6.1 | 0.00 | 0.05 | 0.05 | 81 | 1009.4 |
| 20260506194537 | 70 | 175 | 2.6 | 7.0 | 0.00 | 0.05 | 0.05 | 82 | 1008.9 |
| 20260506193034 | 70 | 185 | 1.7 | 7.0 | 0.00 | 0.05 | 0.05 | 82 | 1009.0 |
| 20260506190043 | 69 | 198 | 0.9 | 7.0 | 0.00 | 0.05 | 0.05 | 83 | 1009.8 |
| 20260506184544 | 68 | 76 | 3.5 | 8.7 | 0.00 | 0.05 | 0.05 | 84 | 1010.3 |
| 20260506183035 | 67 | 188 | 1.7 | 7.8 | 0.00 | 0.05 | 0.05 | 87 | 1010.8 |